DISKSAT D (67222 NORAD) Tracking and Keplerian Element Data

This shows tracking and keplerian element data for the satellite.

Feedback or suggestion? Click here.




ElementValue
Catalog67222
NameDISKSAT D
Epoch Orbit31
Epoch Day354.31483363
Epoch Year2025
RAAN310.415
Inclination45.0056
Eccentricity0.0004477
Argument of Perigee287.6101
Mean Anonmoly72.4284
Mean Motion15.05567005
Decay Rate1.252E-05
L11 67222U 25305D 25354.31483363 .00001252 00000+0 10184-3 0 9990
L22 67222 45.0056 310.4150 0004477 287.6101 72.4284 15.05567005 317



Live tracking and technical data element details for DISKSAT D (NORAD 67222). DISKSAT D can be tracked NOW for your location showing map with azimuth and elevation plus other details from your city location.







IsCatalogInMostPopularTable: catalog: 67222, numindb: 47
Update: records affected: 1



GetName: 67222 DISKSAT D

Hit Count: updated at: Tue, 17 Feb 2026 12:38:33 GMT